Location: Solstice Park, West Seattle
(47.5363°N, 122.3905°W)
Time: 08:18:45
(UTC-07:00)

ISS - Pass Details

Date: 14 May 2021
Orbit: 417 x 422 km, 51.6° (Epoch: 18 June)

Event Time Altitude Azimuth Distance (km) Brightness Sun altitude
Exits shadow 00:01:54 14° 63° (ENE) 1,272 -1.2 -22.2°
Drops below altitude 10° 00:02:29 10° 64° (ENE) 1,508 -0.8 -22.2°
Sets 00:04:36 0° 67° (ENE) 2,375 0.2 -22.3°
